Flag for U.S.A. Weather past 2 weeks in Louisville, Kentucky, U.S.A.

Now
69 °F

Clear.


Feels Like: 69 °F
Forecast: 56 / 78 °F
Wind: 9 mph from North

Location: Standiford Field

Current Time: Jul 28, 2014 at 11:26:53 PM

Latest Report: Jul 28, 2014 at 10:56 PM


Visibility: 10 mi

Pressure: 30.02 "Hg

Humidity: 63%

Dew point: 56 °F

Location of LouisvilleLocation

Historic Weather in Louisville — Graph

°F

Louisville temperature yesterday

Maximum temperature yesterday: 90 °F (at 4:56 PM)
Minimum temperature yesterday: 70 °F (at 5:56 AM)
Average temperature yesterday: 77 °F

Past Weeks' High & Low Weather Summary

 TemperatureHumidityPressure
High93 °F (Jul 26, 4:56 PM)97% (Jul 18, 11:56 PM)30.14 "Hg (Jul 18, 11:56 PM)
Low58 °F (Jul 16, 5:56 AM)31% (Jul 17, 12:56 PM)29.72 "Hg (Jul 27, 5:56 PM)
Average75 °F68%29.99 "Hg
* Reported Jul 13 9:56 PM — Jul 28 9:56 PM, Louisville, Weather by CustomWeather, © 2014

Note: Actual official high and low records may vary slightly from our data, if they occured in-between our weather recording intervals... More about our weather records

Advertising

Louisville weather history for previous 24 hours

 ConditionsComfort  
Time TempWeatherWind HumidityBarometerVisibility
9:56 PM
Jul 28
71 °FPassing clouds.14 mph59%30.00 "Hg10 mi
8:56 PM73 °FScattered clouds.13 mph57%29.98 "Hg10 mi
7:56 PM75 °FScattered clouds.14 mph55%29.97 "Hg10 mi
6:56 PM75 °FPartly sunny.12 mph58%29.98 "Hg10 mi
5:56 PM77 °FPartly sunny.13 mph54%29.98 "Hg10 mi
4:56 PM77 °FBroken clouds.13 mph52%29.97 "Hg10 mi
3:56 PM78 °FPartly sunny.12 mph52%29.98 "Hg10 mi
2:56 PM77 °FPartly sunny.17 mph54%29.98 "Hg10 mi
1:56 PM74 °FPartly sunny.13 mph60%29.98 "Hg10 mi
12:56 PM73 °FPartly sunny.10 mph64%29.98 "Hg10 mi
11:56 AM73 °FMostly cloudy.8 mph64%29.98 "Hg10 mi
11:04 AM72 °FOvercast.12 mph66%29.99 "Hg10 mi
10:56 AM70 °FMostly cloudy.10 mph71%29.97 "Hg10 mi
9:56 AM69 °FOvercast.14 mph73%29.96 "Hg10 mi
8:56 AM69 °FPartly sunny.14 mph73%29.94 "Hg10 mi
7:56 AM66 °FPassing clouds.8 mph81%29.93 "Hg10 mi
6:56 AM66 °FPassing clouds.10 mph78%29.90 "Hg10 mi
5:56 AM67 °FClear.9 mph76%29.89 "Hg10 mi
4:56 AM68 °FClear.8 mph73%29.87 "Hg10 mi
3:56 AM69 °FClear.9 mph70%29.86 "Hg10 mi
2:56 AM70 °FClear.9 mph68%29.86 "Hg10 mi
1:56 AM72 °FClear.8 mph64%29.86 "Hg10 mi
12:56 AM74 °FPassing clouds.13 mph60%29.85 "Hg10 mi
11:56 PM
Jul 27
76 °FClear.17 mph58%29.84 "Hg10 mi
Weather by CustomWeather, © 2014

See weather overviewHow to use our weather pages